Date String (YYYY-MM-DD hh:mm:ss) UTC,Instrument flags,Ambient pressure (hPa),Sample flow (lpm),Bypass flow (lpm),Sample temperature (°C),Ambient temperature (°C),ASC tube jacket temperature (°C),LED temperature (°C),Box temperature (°C),Sample RH (%),Span deviation,Mass concentration (μg/m³),Mass concentration (μg/m³),Mass concentration (μg/m³)
DateTimeUTC,F1_M11,P_M11,Q1_M11,Q2_M11,T1_M11,T2_M11,T3_M11,T4_M11,T5_M11,U1_M11,ZSPAN_M11,X0_M11,X2_M11,X1_M11
2022-11-01 16:00:00,,0824.0,5.00,0.00,27.3,26.2,00.0,35.9,29.3,11.8,0000.0,0011.23,0004.17,0003.46
2022-11-01 16:01:00,,0824.0,5.00,0.00,27.3,26.2,00.0,35.9,29.3,11.6,0000.0,0011.56,0004.17,0003.49
2022-11-01 16:02:00,,0823.9,5.00,0.00,27.3,26.2,00.0,35.9,29.3,11.9,0000.0,0011.53,0004.22,0003.52
2022-11-01 16:03:00,,0824.0,5.00,0.00,27.3,26.2,00.0,36.0,29.3,12.3,0000.0,0012.04,0004.28,0003.53
2022-11-01 16:04:00,,0824.0,5.01,0.00,27.4,26.2,00.0,36.0,29.4,12.9,0000.0,0012.70,0004.31,0003.51
2022-11-01 16:05:00,,0823.9,5.00,0.00,27.4,26.3,00.0,36.0,29.4,12.9,0000.0,0012.98,0004.29,0003.46
2022-11-01 16:06:00,,0823.9,5.00,0.00,27.4,26.3,00.0,36.0,29.4,13.0,0000.0,0014.91,0004.29,0003.41
2022-11-01 16:07:00,,0823.9,5.00,0.00,27.4,26.3,00.0,36.0,29.4,12.9,0000.0,0016.04,0004.29,0003.36
2022-11-01 16:08:00,,0823.8,5.01,0.00,27.4,26.3,00.0,36.1,29.4,12.8,0000.0,0016.29,0004.29,0003.30
2022-11-01 16:09:00,,0823.8,5.01,0.00,27.4,26.3,00.0,36.1,29.4,12.6,0000.0,0016.29,0004.23,0003.23
2022-11-01 16:10:00,,0823.8,5.00,0.00,27.5,26.3,00.0,36.1,29.4,12.4,0000.0,0015.90,0004.26,0003.17
2022-11-01 16:11:00,,0823.8,4.99,0.00,27.5,26.3,00.0,36.1,29.4,12.2,0000.0,0016.96,0004.28,0003.13
2022-11-01 16:12:00,,0823.8,5.00,0.00,27.5,26.4,00.0,36.1,29.5,12.3,0000.0,0017.74,0004.27,0003.11
2022-11-01 16:13:00,,0823.7,5.01,0.00,27.5,26.4,00.0,36.2,29.5,11.8,0000.0,0017.94,0004.24,0003.03
2022-11-01 16:14:00,,0823.8,5.01,0.00,27.5,26.4,00.0,36.2,29.5,11.5,0000.0,0017.58,0004.22,0003.04
2022-11-01 16:15:00,,0823.7,5.00,0.00,27.5,26.4,00.0,36.2,29.5,11.6,0000.0,0016.27,0004.17,0003.05
2022-11-01 16:16:00,,0823.7,5.00,0.00,27.6,26.4,00.0,36.2,29.5,11.5,0000.0,0015.57,0004.19,0003.11
2022-11-01 16:17:00,,0823.7,5.00,0.00,27.6,26.4,00.0,36.2,29.5,11.1,0000.0,0014.55,0004.24,0003.15
2022-11-01 16:18:00,,0823.7,5.00,0.00,27.6,26.4,00.0,36.2,29.5,10.5,0000.0,0014.16,0004.30,0003.21
2022-11-01 16:19:00,,0823.7,5.00,0.00,27.6,26.5,00.0,36.3,29.5,10.4,0000.0,0014.44,0004.30,0003.27
2022-11-01 16:20:00,,0823.7,5.00,0.00,27.6,26.5,00.0,36.3,29.6,10.1,0000.0,0014.34,0004.34,0003.33
2022-11-01 16:21:00,,0823.7,5.00,0.00,27.6,26.5,00.0,36.3,29.6,10.3,0000.0,0014.27,0004.30,0003.38
2022-11-01 16:22:00,,0823.7,5.00,0.00,27.7,26.5,00.0,36.3,29.6,09.8,0000.0,0013.19,0004.26,0003.44
2022-11-01 16:23:00,,0823.6,5.01,0.00,27.7,26.5,00.0,36.3,29.6,09.5,0000.0,0012.42,0004.33,0003.53
2022-11-01 16:24:00,,0823.6,5.01,0.00,27.7,26.5,00.0,36.4,29.6,09.8,0000.0,0012.28,0004.40,0003.61
2022-11-01 16:25:00,,0823.7,5.00,0.00,27.7,26.5,00.0,36.4,29.6,09.7,0000.0,0012.57,0004.47,0003.66
2022-11-01 16:26:00,,0823.7,5.00,0.00,27.8,26.6,00.0,36.4,29.6,09.7,0000.0,0013.24,0004.52,0003.73
2022-11-01 16:27:00,,0823.7,4.99,0.00,27.8,26.6,00.0,36.4,29.7,09.8,0000.0,0013.11,0004.52,0003.76
2022-11-01 16:28:00,,0823.7,5.00,0.00,27.8,26.6,00.0,36.4,29.7,09.7,0000.0,0012.20,0004.48,0003.79
2022-11-01 16:29:00,,0823.7,5.00,0.00,27.8,26.6,00.0,36.5,29.7,09.5,0000.0,0011.14,0004.40,0003.78
2022-11-01 16:30:00,,0823.7,5.01,0.00,27.8,26.7,00.0,36.5,29.7,09.5,0000.0,0010.48,0004.37,0003.76
2022-11-01 16:31:00,,0823.7,5.00,0.00,27.8,26.7,00.0,36.5,29.7,09.4,0000.0,0010.26,0004.30,0003.73
2022-11-01 16:32:00,,0823.7,5.00,0.00,27.9,26.7,00.0,36.5,29.8,09.5,0000.0,0009.89,0004.24,0003.69
2022-11-01 16:33:00,,0823.7,4.99,0.00,27.9,26.7,00.0,36.5,29.8,09.5,0000.0,0010.02,0004.20,0003.64
2022-11-01 16:34:00,,0823.7,5.00,0.00,27.9,26.8,00.0,36.6,29.8,09.5,0000.0,0009.60,0004.12,0003.57
2022-11-01 16:35:00,,0823.7,5.01,0.00,27.9,26.8,00.0,36.6,29.8,09.7,0000.0,0009.71,0004.03,0003.50
2022-11-01 16:36:00,,0823.7,5.01,0.00,28.0,26.8,00.0,36.6,29.9,09.8,0000.0,0009.38,0003.93,0003.45
2022-11-01 16:37:00,,0823.7,5.00,0.00,28.0,26.8,00.0,36.6,29.9,09.6,0000.0,0008.95,0003.85,0003.37
2022-11-01 16:38:00,,0823.7,4.99,0.00,28.0,26.8,00.0,36.7,29.9,09.6,0000.0,0008.56,0003.79,0003.33
2022-11-01 16:39:00,,0823.7,4.98,0.00,28.0,26.8,00.0,36.7,29.9,09.8,0000.0,0008.63,0003.76,0003.30
2022-11-01 16:40:00,,0823.7,4.99,0.00,28.0,26.8,00.0,36.7,29.9,09.7,0000.0,0008.81,0003.74,0003.26
2022-11-01 16:41:00,,0823.7,5.01,0.00,28.0,26.9,00.0,36.7,29.9,09.7,0000.0,0008.63,0003.71,0003.23
2022-11-01 16:42:00,,0823.7,5.01,0.00,28.1,26.9,00.0,36.7,29.9,09.7,0000.0,0008.61,0003.72,0003.22
2022-11-01 16:43:00,,0823.7,4.99,0.00,28.1,26.9,00.0,36.7,30.0,09.7,0000.0,0008.64,0003.78,0003.24
2022-11-01 16:44:00,,0823.7,4.99,0.00,28.1,26.9,00.0,36.8,30.0,09.8,0000.0,0008.45,0003.81,0003.25
2022-11-01 16:45:00,,0823.7,4.99,0.00,28.1,26.9,00.0,36.8,30.0,09.7,0000.0,0008.41,0003.80,0003.24
2022-11-01 16:46:00,,0823.6,5.01,0.00,28.1,27.0,00.0,36.8,30.0,09.8,0000.0,0008.07,0003.78,0003.22
2022-11-01 16:47:00,,0823.6,5.00,0.00,28.2,27.0,00.0,36.8,30.0,09.9,0000.0,0007.87,0003.77,0003.21
2022-11-01 16:48:00,,0823.6,5.01,0.00,28.2,27.0,00.0,36.8,30.0,10.0,0000.0,0008.23,0003.81,0003.21
2022-11-01 16:49:00,,0823.6,5.01,0.00,28.2,27.0,00.0,36.8,30.1,09.9,0000.0,0008.60,0003.83,0003.22
2022-11-01 16:50:00,,0823.5,4.99,0.00,28.2,27.0,00.0,36.9,30.1,09.9,0000.0,0009.12,0003.84,0003.21
2022-11-01 16:51:00,,0823.4,5.00,0.00,28.2,27.0,00.0,36.9,30.1,09.9,0000.0,0009.11,0003.84,0003.22
2022-11-01 16:52:00,,0823.4,4.99,0.00,28.3,27.1,00.0,36.9,30.1,09.9,0000.0,0009.34,0003.84,0003.22
2022-11-01 16:53:00,,0823.4,4.99,0.00,28.3,27.1,00.0,36.9,30.1,09.9,0000.0,0009.46,0003.84,0003.21
2022-11-01 16:54:00,,0823.4,5.00,0.00,28.3,27.1,00.0,36.9,30.2,09.9,0000.0,0009.52,0003.81,0003.20
2022-11-01 16:55:00,,0823.4,5.00,0.00,28.3,27.1,00.0,37.0,30.2,10.0,0000.0,0009.84,0003.76,0003.18
2022-11-01 16:56:00,,0823.4,5.01,0.00,28.3,27.1,00.0,37.0,30.2,09.9,0000.0,0009.83,0003.74,0003.17
2022-11-01 16:57:00,,0823.4,5.00,0.00,28.3,27.1,00.0,37.0,30.2,09.9,0000.0,0009.80,0003.71,0003.17
2022-11-01 16:58:00,,0823.4,5.01,0.00,28.3,27.2,00.0,37.0,30.2,09.8,0000.0,0010.01,0003.72,0003.17
2022-11-01 16:59:00,,0823.4,5.00,0.00,28.4,27.2,00.0,37.0,30.2,09.9,0000.0,0009.75,0003.67,0003.17
